Lid_Strength_Index
5 5 4 4 4 3 3 3 2 2 2 2 1 1 1 1 1 1 1 1 1 1 1 1 0 0 0 0 0 0 0 0 1
6 5 5 4 4 3 3 3 2 2 2 2 1 1 1 1 1 1 1 1 1 1 0 0 1 1 0 0 0 0 0 1 1
6 6 5 4 4 3 3 2 2 2 1 2 1 1 1 1 1 1 1 1 1 1 1 2 3 4 2 0 0 0 0 1 2
6 5 5 4 4 3 3 2 2 2 2 2 2 1 1 1 1 1 1 1 1 0 1 3 1 3 1 0 1 0 1 1 1
5 5 5 4 4 3 3 3 2 2 2 2 1 1 1 1 1 1 1 1 1 1 3 1 0 0 1 1 1 0 1 1 1
6 5 5 4 4 4 4 3 3 3 2 2 2 1 1 1 1 1 1 1 1 0 1 0 0 0 1 1 1 1 1 1 1
6 5 5 5 4 4 4 3 3 3 3 2 3 3 2 2 2 2 2 1 1 1 0 1 1 1 1 0 1 1 1 1 1
6 6 5 5 5 4 4 3 3 2 2 2 1 2 2 2 1 1 1 1 1 1 0 0 0 1 1 2 4 4 3 1 1
7 7 6 5 4 4 4 3 3 3 3 2 1 2 2 1 1 2 2 2 1 1 1 1 1 2 3 5 6 5 6 3 1
7 6 6 5 5 4 4 3 3 3 2 2 2 2 2 1 2 2 2 1 2 1 1 1 2 4 6 9 9 8 7 4 1
6 6 5 5 5 4 3 2 2 2 2 2 2 2 2 2 2 2 3 2 1 1 1 2 4 5 7 10 10 8 7 4 2
5 5 6 6 6 6 4 3 2 2 3 2 2 2 2 2 2 3 2 2 2 3 5 6 6 7 9 11 12 9 7 3 3
6 5 5 6 7 6 6 6 5 5 6 5 5 3 2 2 2 2 2 2 1 3 5 6 7 8 9 10 12 10 8 5 2
6 7 6 6 7 8 8 7 7 8 7 7 6 5 3 3 2 2 2 2 2 3 5 6 8 9 10 10 11 11 10 8 7
7 6 6 7 8 8 7 7 7 7 7 6 6 5 4 4 2 2 3 3 3 3 4 6 7 7 8 9 11 10 10 10 9
6 6 7 6 6 7 7 6 7 8 6 6 5 5 5 4 7 8 4 3 4 4 5 5 5 5 7 8 9 11 9 10 9
6 7 6 6 6 6 6 6 6 6 5 6 6 5 5 7 10 11 11 9 11 11 11 8 4 5 7 9 12 13 13 12 11
5 5 5 5 6 6 6 6 5 5 4 5 6 5 6 6 9 12 14 15 13 13 15 14 10 11 11 10 13 15 13 13 13
5 5 5 5 5 6 6 6 6 5 4 4 5 5 6 6 6 8 10 12 14 14 14 14 14 13 13 14 14 13 12 13 12
5 5 5 6 5 5 5 5 5 6 5 5 5 5 5 5 6 7 10 11 12 14 14 14 14 15 14 13 14 14 14 14 12